CENTAURI-2

Last updated on Fri Mar 17 2023 00:03:44 GMT+0000 (Coordinated Universal Time)

1 43722U 18096D 23075.44908889 .04004527 23767-5 20302-2 0 9990 2 43722 97.3041 168.6481 0010212 280.6522 79.3617 16.20519022240297

Satellite not in orbit